loading
|
Showing default

NUSAT-44 MARIA MITCHELL, 59122

Orbit data source: Space-Track

NUSAT-44 MARIA MITCHELL, 59122 is a payload satellite owned by URUGUS S.A. (AR) in SSO that was launched on Mon, 04 Mar 2024 UTC via an FALCON 9 launch vehicle from the Air Force Western Test Range (AFWTR). Payloads include a variety of satellites, spacecraft, and rockets equipped with specific instruments for various scientific and technological missions. These include communications satellites like Starlink; space stations such as the ISS; scientific satellites like the Hubble; Earth observation satellites from companies like Planet Labs, Umbra, and HawkEye 360; GPS; miniature CubeSats for education and research; and military/defense satellites.

Loading next visibility...
Loading greatness...
NUSAT-44 MARIA MITCHELL details
Identifier
59122, 2024-043AA
Orbit
SSO
Last TLE update7 hours ago
Origin
Flag of ARURUGUS S.A. (AR / ARGN)
ManufacturerURUGUS S.A.
Mission statusOperational
MissionCommercial Imaging
Bus & MotorNEWSAT V, Unknown motor
Mass41.5 kg wet, 38.5 kg dry
Launch date (UTC)
2024-03-04 (7 months ago)
Launch vehicle
FALCON 9
Launch site
Air Force Western Test Range (AFWTR)
Object type
Payload
Rocket body
Debris
Radar Cross SectionMedium (>0.1 m² and <1 m²)

Expand to show TLE details & history

TLE from 7 hours ago
0 NUSAT-44 MARIA MITCHELL
1 59122U 24043AA  24261.58657777  .00055639  00000-0  23864-2 0  9992
2 59122  97.4877  24.8224 0012053 328.4695  31.5818 15.22465007 29855
Epoch: 2024-09-17T14:04Z
Definitive object data (Epoch: 2024-09-17T14:04:40.319Z)
Latitude0.00002°
Longitude176.6553°
Altitude494.44 km
Speed7.621 km/s
True Right ascension01h 39m 17s
True Declination0° 00' 00"
Sunlit
Object was in full shadow at TLE epoch
Predictive object data (real-time)
Latitude-82.5502°
Longitude-94.60679°
Altitude522.189 km
Speed7.603 km/s
Apparent Right ascension03h 02m 10s
Apparent Declination-64° 38' 06"
Sunlit
Object is in daylight
Predictive observer data (real-time)
Local Sidereal Time14:23:03
Azimuth189.78° SSW
Elevation-64.635°
Doppler factor1
Orbital elements
Apogee503.659 km
Perigee487.09 km
Semi-major axis6,873.511 km
Eccentricity0.0012053
Inclination97.4877°
RAAN24.8224°
Arg. of periapsis328.4695°
True anomaly31.65423°
Mean anomaly31.5818°
Eccentric anomaly31.618°
Mean motion3.80869 °/min
BSTAR0.0023864
Period94.52 mins
No data available

NUSAT-44 MARIA MITCHELL Visibility forecast

Observer location: 39.9160978°, -105.1181434

NUSAT-44 MARIA MITCHELL is not visible in the next 10 days
Span
Click to sort rows by Start time (UTC) header in descending order
Start Az.
Max El. time (UTC)
Max El. Az.
Max El.
End time (UTC)
End Az.